Simultaneous Nadir Overpasses (SNOs) Predictions

Prediction of SNOs between NOAA-19 and NPP Satellite Orbit:

Table of predicted SNOs for the next 14.0 days since TLE Epoch: 4/13/2013
Index Date (NOAA-19) Time (NOAA-19) Lat,Lon (NOAA-19) SZA (NOAA-19 ) Date (NPP) Time (NPP) Lat,Lon (NPP) SZA (NPP ) Distance(km) Time Diff (sec)
1 04/25/2013 11:14:11 -80.91, 139.05 108.85 04/25/2013 11:15:22 -80.91, 139.12 108.89 1.41 71
2 04/25/2013 12:05:16 80.89, -53.22 71.07 04/25/2013 12:06:06 80.88, -53.12 71.03 1.91 50
3 04/25/2013 12:56:13 -80.87, 114.47 109.01 04/25/2013 12:56:50 -80.87, 114.44 109.03 0.59 37
4 04/25/2013 13:47:18 80.85, -77.79 70.91 04/25/2013 13:47:34 80.85, -77.80 70.90 0.21 16
5 04/25/2013 14:38:15 -80.83, 89.90 109.17 04/25/2013 14:38:18 -80.84, 89.75 109.16 2.58 3
6 04/25/2013
